sat.trackr.live / text

‹ back to catalog

STARLINK-36196

NORAD 67107 · 2025-299F

PAYLOAD ACTIVE UNKNOWN

§ Identity

Operator
Country
US
Launch date
2025-12-15
Launch site
AFETR
Launch vehicle
Mass (kg)
RCS (m²)

Purposes: comms

External: N2YO · Heavens-Above · Gunter

§ Orbital elements

Epoch: 2026-09-20T01:43:58.504224Z

Period
94.27 min
Inclination
43.0009°
Eccentricity
0.0000595
Mean motion
15.27587050 rev/d
Perigee alt
482.6 km
Apogee alt
483.4 km
Semi-major
6,861.2 km
B*
3.7045e-4
RAAN
151.3027°
Arg perigee
261.0658°
Mean anomaly
99.0126°
Rev number
4,284

§ Raw data

STARLINK-361961 67107U 25299F   26263.07220491  .00009948  00000+0  37045-3 0  99932 67107  43.0009 151.3027 0000595 261.0658  99.0126 15.27587050 42840

JSON: /api/v1/satellites/67107 · /tle

For live sub-satellite position, see the globe view (requires WebGL).

§ Visibility from observer

Set your observer location to see the next 7 days of passes ≥ 10°. The values pass through the URL so the page stays shareable.

No JS? Fill the form by hand. The geolocation button needs JavaScript.